Location: Brompton
(51.4000°N, 0.5333°E)
Time: 11:55:00
(UTC+00:00)

Cosmos 1898 Rocket - Pass Details

Date: 04 October 2021
Orbit: 752 x 784 km, 74.0° (Epoch: 17 October)

Event Time Altitude Azimuth Distance (km) Brightness Sun altitude
Rises 04:27:50 0° 335° (NNW) 3,275 6.6 -15.7°
Reaches altitude 10° 04:30:14 10° 335° (NNW) 2,346 5.9 -15.3°
Maximum altitude 04:35:35 88° 66° (ENE) 792 3.6 -14.5°
Drops below altitude 10° 04:40:56 10° 156° (SSE) 2,338 6.2 -13.7°
Sets 04:43:18 0° 157° (SSE) 3,262 6.9 -13.3°
